Location: *
(43.0833°N, 13.0500°E)
Time: 20:14:58
(UTC+00:00)

CORIOLIS - Pass Details

Date: 15 November 2019
Orbit: 819 x 838 km, 98.7° (Epoch: 06 December)

Event Time Altitude Azimuth Distance (km) Brightness Sun altitude
Rises 16:51:13 0° 170° (S) 3,352 7.4 -12.3°
Reaches altitude 10° 16:53:34 10° 173° (S) 2,426 6.7 -12.7°
Maximum altitude 16:58:56 71° 257° (WSW) 879 4.5 -13.7°
Drops below altitude 10° 17:04:22 10° 342° (NNW) 2,455 6.7 -14.7°
Sets 17:06:45 0° 345° (NNW) 3,396 7.4 -15.1°
